This is the latest recevied weather packets stored in our database for station/object W6MAF. If no packets are shown the sender has not sent any weather packets the latest 10 day(s).
| Time | Temp. | Humidity | Pressure | Rain* | Wind** | Luminosity | Snow |
|---|---|---|---|---|---|---|---|
| 1788638669 | 26.67° C | 4% | - | 0 mm | 8.49 m/s, 193° | - | - |
| 1788638372 | 26.67° C | 4% | - | 0 mm | 8.49 m/s, 210° | - | - |
| 1788638074 | 26.67° C | 4% | - | 0 mm | 6.71 m/s, 193° | - | - |
| 1788637475 | 26.67° C | 4% | - | 0 mm | 5.36 m/s, 158° | - | - |
| 1788637178 | 26.11° C | 4% | - | 0 mm | 7.15 m/s, 187° | - | - |
| 1788636880 | 26.11° C | 4% | - | 0 mm | 5.81 m/s, 194° | - | - |
| 1788636582 | 26.11° C | 4% | - | 0 mm | 5.81 m/s, 198° | - | - |
| 1788636285 | 26.11° C | 4% | - | 0 mm | 6.71 m/s, 173° | - | - |
| 1788635987 | 25.56° C | 4% | - | 0 mm | 6.26 m/s, 176° | - | - |
| 1788635686 | 25.56° C | 5% | - | 0 mm | 8.49 m/s, 186° | - | - |
| 1788635388 | 25.56° C | 5% | - | 0 mm | 8.05 m/s, 159° | - | - |
| 1788635091 | 25° C | 5% | - | 0 mm | 8.49 m/s, 176° | - | - |
| 1788634793 | 25° C | 5% | - | 0 mm | 8.49 m/s, 165° | - | - |
| 1788634495 | 25° C | 5% | - | 0 mm | 8.49 m/s, 180° | - | - |
| 1788634198 | 25° C | 5% | - | 0 mm | 10.28 m/s, 180° | - | - |
| 1788633897 | 25° C | 5% | - | 0 mm | 8.49 m/s, 155° | - | - |
| 1788633599 | 25° C | 5% | - | 0 mm | 9.83 m/s, 158° | - | - |
| 1788633301 | 25° C | 5% | - | 0 mm | 4.92 m/s, 180° | - | - |
| 1788633004 | 25° C | 5% | - | 0 mm | 5.81 m/s, 142° | - | - |
| 1788632706 | 24.44° C | 5% | - | 0 mm | 8.94 m/s, 188° | - | - |
| 1788632408 | 24.44° C | 5% | - | 0 mm | 7.6 m/s, 193° | - | - |
| 1788632107 | 24.44° C | 5% | - | 0 mm | 8.49 m/s, 159° | - | - |
| 1788631810 | 24.44° C | 6% | - | 0 mm | 6.71 m/s, 162° | - | - |
| 1788631214 | 23.89° C | 6% | - | 0 mm | 5.81 m/s, 158° | - | - |
| 1788630916 | 23.89° C | 6% | - | 0 mm | 6.71 m/s, 172° | - | - |
* Rain latest hour (hover to see other rain measurements)
** Current wind speed in m/s (hover to see current wind gust speed)